TimeCST,TemperatureF,Dew PointF,Humidity,Sea Level PressureIn,VisibilityMPH,Wind Direction,Wind SpeedMPH,Gust SpeedMPH,PrecipitationIn,Events,Conditions,WindDirDegrees,DateUTC
12:15 AM,-9999,-9999,N/A,30.00,7.0,East,3.5,-,N/A,,Overcast,90,2013-11-16 06:15:00
12:35 AM,-9999,-9999,N/A,30.00,10.0,East,4.6,-,N/A,,Overcast,100,2013-11-16 06:35:00
12:55 AM,-9999,-9999,N/A,29.99,7.0,East,4.6,-,N/A,,Overcast,100,2013-11-16 06:55:00
1:15 AM,-9999,-9999,N/A,29.99,5.0,East,4.6,-,N/A,,Haze,100,2013-11-16 07:15:00
1:35 AM,-9999,-9999,N/A,29.98,5.0,East,4.6,-,N/A,,Haze,100,2013-11-16 07:35:00
1:55 AM,-9999,-9999,N/A,29.98,5.0,ESE,3.5,-,N/A,,Haze,110,2013-11-16 07:55:00
2:15 AM,-9999,-9999,N/A,29.98,5.0,SE,4.6,-,N/A,,Haze,130,2013-11-16 08:15:00
2:35 AM,-9999,-9999,N/A,29.98,7.0,SE,3.5,-,N/A,,Overcast,140,2013-11-16 08:35:00
2:55 AM,-9999,-9999,N/A,29.98,7.0,SE,3.5,-,N/A,,Overcast,130,2013-11-16 08:55:00
3:15 AM,-9999,-9999,N/A,29.98,10.0,SE,6.9,-,N/A,,Overcast,140,2013-11-16 09:15:00
3:35 AM,-9999,-9999,N/A,29.97,10.0,SE,5.8,-,N/A,,Overcast,140,2013-11-16 09:35:00
3:55 AM,-9999,-9999,N/A,29.97,10.0,SE,8.1,-,N/A,,Overcast,140,2013-11-16 09:55:00
4:15 AM,-9999,-9999,N/A,29.97,10.0,SE,8.1,-,N/A,,Overcast,130,2013-11-16 10:15:00
4:35 AM,-9999,-9999,N/A,29.97,7.0,ESE,5.8,-,N/A,,Overcast,120,2013-11-16 10:35:00
4:55 AM,-9999,-9999,N/A,29.97,7.0,ESE,5.8,-,N/A,,Overcast,120,2013-11-16 10:55:00
5:15 AM,-9999,-9999,N/A,29.97,7.0,ESE,6.9,-,N/A,,Overcast,120,2013-11-16 11:15:00
5:35 AM,-9999,-9999,N/A,29.98,7.0,ESE,4.6,-,N/A,,Overcast,110,2013-11-16 11:35:00
5:55 AM,-9999,-9999,N/A,29.98,5.0,ESE,4.6,-,N/A,,Haze,110,2013-11-16 11:55:00
6:15 AM,-9999,-9999,N/A,29.99,2.0,ESE,5.8,-,N/A,,Overcast,120,2013-11-16 12:15:00
6:35 AM,-9999,-9999,N/A,30.00,0.5,ESE,3.5,-,N/A,Fog,Fog,120,2013-11-16 12:35:00
6:55 AM,-9999,-9999,N/A,30.00,0.2,East,3.5,-,N/A,Fog,Fog,100,2013-11-16 12:55:00
7:15 AM,-9999,-9999,N/A,30.00,0.2,Calm,Calm,-,N/A,Fog,Fog,0,2013-11-16 13:15:00
7:35 AM,-9999,-9999,N/A,30.00,0.2,East,3.5,-,N/A,Fog,Fog,100,2013-11-16 13:35:00
7:55 AM,-9999,-9999,N/A,30.01,0.2,ESE,5.8,-,N/A,Fog,Fog,110,2013-11-16 13:55:00
8:15 AM,-9999,-9999,N/A,30.02,0.8,ESE,6.9,-,N/A,,Overcast,110,2013-11-16 14:15:00
8:35 AM,-9999,-9999,N/A,30.02,1.8,SE,4.6,-,N/A,,Overcast,130,2013-11-16 14:35:00
8:55 AM,-9999,-9999,N/A,30.02,7.0,ESE,5.8,-,N/A,,Overcast,120,2013-11-16 14:55:00
9:15 AM,-9999,-9999,N/A,30.02,10.0,SE,8.1,-,N/A,,Overcast,130,2013-11-16 15:15:00
9:35 AM,-9999,-9999,N/A,30.02,10.0,SE,8.1,-,N/A,,Overcast,130,2013-11-16 15:35:00
9:55 AM,75.4,75.2,99,30.02,10.0,SSE,8.1,18.4,N/A,,Overcast,150,2013-11-16 15:55:00
10:15 AM,77.9,70.9,79,30.02,10.0,SE,13.8,20.7,N/A,,Overcast,140,2013-11-16 16:15:00
10:35 AM,79.0,67.6,68,30.01,10.0,SSE,15.0,-,N/A,,Mostly Cloudy,160,2013-11-16 16:35:00
10:55 AM,79.9,64.9,60,30.00,10.0,SSE,17.3,20.7,N/A,,Scattered Clouds,160,2013-11-16 16:55:00
11:15 AM,79.9,64.8,60,29.99,10.0,SSE,11.5,-,N/A,,Scattered Clouds,150,2013-11-16 17:15:00
11:35 AM,80.6,63.9,57,29.99,10.0,SSE,12.7,21.9,N/A,,Mostly Cloudy,150,2013-11-16 17:35:00
11:55 AM,79.2,63.9,59,29.98,10.0,SSE,16.1,20.7,N/A,,Mostly Cloudy,150,2013-11-16 17:55:00
12:15 PM,80.6,64.0,57,29.97,10.0,SE,11.5,20.7,N/A,,Overcast,140,2013-11-16 18:15:00
12:35 PM,79.3,63.7,59,29.97,10.0,SSE,12.7,19.6,N/A,,Overcast,150,2013-11-16 18:35:00
12:55 PM,79.9,63.7,58,29.96,10.0,SSE,15.0,-,N/A,,Overcast,150,2013-11-16 18:55:00
1:15 PM,80.2,64.0,58,29.95,10.0,SSE,17.3,-,N/A,,Overcast,150,2013-11-16 19:15:00
1:35 PM,79.2,64.2,60,29.95,10.0,SSE,11.5,20.7,N/A,,Overcast,150,2013-11-16 19:35:00
1:55 PM,79.2,65.1,62,29.94,10.0,SE,11.5,18.4,N/A,,Overcast,140,2013-11-16 19:55:00
2:15 PM,78.8,64.9,62,29.94,10.0,SSE,13.8,17.3,N/A,,Overcast,150,2013-11-16 20:15:00
2:35 PM,78.1,65.5,65,29.94,10.0,SSE,13.8,-,N/A,,Overcast,160,2013-11-16 20:35:00
2:55 PM,77.9,66.0,67,29.93,10.0,SSE,12.7,17.3,N/A,,Overcast,150,2013-11-16 20:55:00
3:15 PM,77.7,66.2,68,29.93,10.0,SSE,12.7,-,N/A,,Overcast,150,2013-11-16 21:15:00
3:35 PM,77.4,66.4,69,29.92,7.0,SE,10.4,-,N/A,,Overcast,140,2013-11-16 21:35:00
3:55 PM,77.2,67.1,71,29.92,7.0,SE,9.2,-,N/A,,Overcast,130,2013-11-16 21:55:00
4:15 PM,76.5,67.5,74,29.92,10.0,SE,11.5,16.1,N/A,,Overcast,130,2013-11-16 22:15:00
4:35 PM,76.1,67.1,74,29.92,10.0,SE,12.7,19.6,N/A,,Overcast,140,2013-11-16 22:35:00
4:55 PM,75.4,67.5,76,29.92,10.0,SE,11.5,-,N/A,,Overcast,140,2013-11-16 22:55:00
5:15 PM,74.5,69.1,83,29.92,10.0,SE,8.1,16.1,N/A,,Overcast,140,2013-11-16 23:15:00
5:35 PM,74.5,70.0,86,29.93,10.0,SE,8.1,-,N/A,,Overcast,130,2013-11-16 23:35:00
5:55 PM,74.5,70.9,88,29.92,10.0,SE,10.4,-,N/A,,Overcast,140,2013-11-16 23:55:00
6:15 PM,74.3,71.8,92,29.93,10.0,SE,11.5,-,N/A,,Overcast,140,2013-11-17 00:15:00
6:35 PM,73.8,70.7,90,29.94,10.0,SE,9.2,16.1,N/A,,Overcast,130,2013-11-17 00:35:00
6:55 PM,73.4,71.1,92,29.93,10.0,SE,10.4,16.1,N/A,,Overcast,130,2013-11-17 00:55:00
7:15 PM,73.4,72.5,97,29.93,10.0,SE,10.4,16.1,N/A,,Overcast,130,2013-11-17 01:15:00
7:35 PM,73.4,73.4,100,29.93,10.0,SE,15.0,19.6,N/A,,Overcast,140,2013-11-17 01:35:00
7:55 PM,73.4,73.4,100,29.93,10.0,SE,12.7,26.5,N/A,,Overcast,130,2013-11-17 01:55:00
8:15 PM,73.0,73.0,100,29.94,10.0,SE,9.2,19.6,N/A,,Mostly Cloudy,130,2013-11-17 02:15:00
8:35 PM,73.0,73.0,100,29.93,10.0,ESE,10.4,19.6,N/A,,Mostly Cloudy,120,2013-11-17 02:35:00
8:55 PM,72.5,72.5,100,29.94,10.0,ESE,11.5,17.3,N/A,,Mostly Cloudy,120,2013-11-17 02:55:00
9:15 PM,72.5,72.5,100,29.95,10.0,SE,10.4,16.1,N/A,,Mostly Cloudy,130,2013-11-17 03:15:00
9:35 PM,72.5,72.5,100,29.95,10.0,ESE,10.4,18.4,N/A,,Overcast,120,2013-11-17 03:35:00
9:55 PM,72.3,72.3,100,29.96,10.0,SE,11.5,16.1,N/A,,Overcast,130,2013-11-17 03:55:00
10:15 PM,72.5,72.5,100,29.95,10.0,SE,10.4,17.3,N/A,,Overcast,130,2013-11-17 04:15:00
10:35 PM,72.5,72.5,100,29.96,10.0,ESE,13.8,17.3,N/A,,Overcast,120,2013-11-17 04:35:00
10:55 PM,72.7,72.7,100,29.95,10.0,SE,10.4,17.3,N/A,,Overcast,130,2013-11-17 04:55:00
11:15 PM,72.7,72.7,100,29.95,10.0,SE,12.7,16.1,N/A,,Overcast,140,2013-11-17 05:15:00
11:35 PM,72.9,72.9,100,29.95,10.0,SE,11.5,16.1,N/A,,Overcast,130,2013-11-17 05:35:00
11:55 PM,72.9,72.9,100,29.94,10.0,SE,9.2,-,N/A,,Overcast,130,2013-11-17 05:55:00